Regional Weather Roundup
Issued by NWS Goodland, KS

Home | Current Version | Previous Version | Graphics & Text | Print | Product List | Glossary On
Versions: 1 2 3 4 5 6 7 8 9 10 11 12 13 14 15 16 17 18 19 20 21 22 23 24 25 26 27 28 29 30 31 32 33 34 35 36 37 38 39 40 41 42 43 44 45 46 47 48 49 50
000
ASUS43 KGLD 180008
RWRGLD

GOODLAND FORECAST AREA HOURLY WEATHER ROUNDUP
NATIONAL WEATHER SERVICE GOODLAND KS
600 PM MDT THU AUG 17 2017

...OFFICIAL OBSERVATIONS...

CITY           SKY/WX    TMP DP  RH WIND       PRES   REMARKS
GOODLAND KS    CLOUDY    81  60  48 S8        30.01F
HILL CITY KS   SUNNY     89  51  27 SE10      29.97F
IMPERIAL NEB   TSTM      69  60  73 N14       29.99R
MCCOOK NEB     SUNNY     86  60  41 S9        29.96F
AKRON CO       SUNNY     79  45  29 N8        30.07F
BURLINGTON CO  CLOUDY    81  60  48 S7        30.05F
LIMON CO       CLOUDY    74  45  35 SW5       30.13F
$$

...UNOFFICIAL OBSERVATIONS...

CITY           SKY/WX    TMP DP  RH WIND       PRES   REMARKS
LENORA KS        N/A     86  32  14 SE6         N/A
NORTON KS      SUNNY     88  46  23 SE8       29.96F
SHARON SPRINGS   N/A     86  62  44 S10         N/A
TRENTON NEB      N/A     84  32  15 SW7         N/A
KIT CARSON CO    N/A     74  51  43 MISG        N/A
YUMA CO        FAIR      79  27  14 N8        30.02F
$$




USA.gov is the U.S. government's official web portal to all federal, state and local government web resources and services.